Date String (YYYY-MM-DD hh:mm:ss) UTC,Instrument flags,absolute air pressure of the measurement (hPa),sample flow rate (lpm),inlet stack bypass flow (lpm),air temperature of the measurement (°C),ambient temperature measured by the external sensor (°C),aerosol sample conditioner tube jacket temperature (°C),OPC LED temperature (°C),internal box temperature (°C),relative humidity of the measurement (%),span deviation,mass concentration of particles derived from Lorenz-Mie calculation of OPC scattering (μg/m³),mass concentration of particles derived from Lorenz-Mie calculation of OPC scattering (μg/m³),mass concentration of particles derived from Lorenz-Mie calculation of OPC scattering (μg/m³)
DateTimeUTC,F1_M11,P_M11,Q1_M11,Q2_M11,T1_M11,T2_M11,T3_M11,T4_M11,T5_M11,U1_M11,ZSPAN_M11,X2_M11,X0_M11,X1_M11
2023-10-06 14:00:00,SystemResetWarning,0842.5,5.01,000.00,028.4,026.8,000.0,036.8,030.0,17.6,0000.0,0002.64,0006.20,0002.19
2023-10-06 14:01:00,SystemResetWarning,0842.6,5.01,000.00,028.4,026.8,000.0,036.8,030.0,17.6,0000.0,0002.67,0006.04,0002.20
2023-10-06 14:02:00,SystemResetWarning,0842.5,5.00,000.00,028.4,026.8,000.0,036.8,030.0,17.6,0000.0,0002.71,0005.44,0002.20
2023-10-06 14:03:00,SystemResetWarning,0842.6,5.00,000.00,028.4,026.9,000.0,036.8,030.0,17.6,0000.0,0002.71,0005.46,0002.20
2023-10-06 14:04:00,SystemResetWarning,0842.6,5.00,000.00,028.4,026.8,000.0,036.8,030.0,17.6,0000.0,0002.71,0005.75,0002.18
2023-10-06 14:05:00,SystemResetWarning,0842.6,5.00,000.00,028.4,026.8,000.0,036.8,030.0,17.7,0000.0,0002.74,0005.86,0002.18
2023-10-06 14:06:00,SystemResetWarning,0842.6,5.00,000.00,028.4,026.9,000.0,036.8,030.0,17.7,0000.0,0002.74,0005.98,0002.18
2023-10-06 14:07:00,SystemResetWarning,0842.6,5.00,000.00,028.4,026.9,000.0,036.8,030.0,17.7,0000.0,0002.78,0006.54,0002.17
2023-10-06 14:08:00,SystemResetWarning,0842.6,4.99,000.00,028.4,026.9,000.0,036.8,030.0,17.6,0000.0,0002.78,0006.52,0002.17
2023-10-06 14:09:00,SystemResetWarning,0842.6,5.00,000.00,028.4,026.9,000.0,036.8,030.0,17.5,0000.0,0002.80,0007.87,0002.18
2023-10-06 14:10:00,SystemResetWarning,0842.6,5.01,000.00,028.4,026.9,000.0,036.8,030.0,17.5,0000.0,0002.79,0008.12,0002.18
2023-10-06 14:11:00,SystemResetWarning,0842.6,5.00,000.00,028.4,026.9,000.0,036.8,030.0,17.5,0000.0,0002.75,0008.03,0002.18
2023-10-06 14:12:00,SystemResetWarning,0842.6,5.01,000.00,028.4,026.9,000.0,036.8,030.0,17.5,0000.0,0002.73,0007.90,0002.17
2023-10-06 14:13:00,SystemResetWarning,0842.6,4.99,000.00,028.4,026.9,000.0,036.8,030.0,17.4,0000.0,0002.69,0007.79,0002.15
2023-10-06 14:14:00,SystemResetWarning,0842.6,4.99,000.00,028.4,026.9,000.0,036.8,030.0,17.5,0000.0,0002.68,0007.85,0002.15
2023-10-06 14:15:00,SystemResetWarning,0842.6,4.99,000.00,028.4,026.9,000.0,036.8,030.0,17.6,0000.0,0002.67,0007.84,0002.16
2023-10-06 14:16:00,SystemResetWarning,0842.7,4.99,000.00,028.4,026.9,000.0,036.8,030.0,17.5,0000.0,0002.66,0007.76,0002.16
2023-10-06 14:17:00,SystemResetWarning,0842.6,5.00,000.00,028.4,026.9,000.0,036.8,030.0,17.5,0000.0,0002.69,0007.78,0002.16
2023-10-06 14:18:00,SystemResetWarning,0842.7,5.01,000.00,028.4,026.9,000.0,036.8,030.0,17.6,0000.0,0002.67,0007.57,0002.16
2023-10-06 14:19:00,SystemResetWarning,0842.6,5.00,000.00,028.4,026.9,000.0,036.8,030.0,17.6,0000.0,0002.66,0007.56,0002.17
2023-10-06 14:20:00,SystemResetWarning,0842.6,5.01,000.00,028.4,026.9,000.0,036.8,030.0,17.5,0000.0,0002.66,0006.39,0002.17
2023-10-06 14:21:00,SystemResetWarning,0842.6,5.00,000.00,028.4,026.9,000.0,036.8,030.0,17.4,0000.0,0002.72,0004.81,0002.18
2023-10-06 14:22:00,SystemResetWarning,0842.6,5.00,000.00,028.4,026.9,000.0,036.8,030.0,17.3,0000.0,0002.72,0004.88,0002.18
2023-10-06 14:23:00,SystemResetWarning,0842.6,5.00,000.00,028.4,026.9,000.0,036.8,030.0,17.3,0000.0,0002.76,0005.12,0002.19
2023-10-06 14:24:00,SystemResetWarning,0842.6,5.00,000.00,028.4,026.9,000.0,036.8,030.0,17.3,0000.0,0002.77,0005.10,0002.21
2023-10-06 14:25:00,SystemResetWarning,0842.6,5.00,000.00,028.4,026.9,000.0,036.8,030.0,17.3,0000.0,0002.80,0005.26,0002.22
2023-10-06 14:26:00,SystemResetWarning,0842.6,5.00,000.00,028.4,026.9,000.0,036.8,030.0,17.8,0000.0,0002.85,0005.27,0002.23
2023-10-06 14:27:00,SystemResetWarning,0842.7,5.00,000.00,028.4,026.9,000.0,036.8,030.0,18.3,0000.0,0002.85,0005.27,0002.23
2023-10-06 14:28:00,SystemResetWarning,0842.6,5.01,000.00,028.4,026.8,000.0,036.8,030.0,18.5,0000.0,0002.82,0005.20,0002.23
2023-10-06 14:29:00,SystemResetWarning,0842.6,5.01,000.00,028.4,026.8,000.0,036.8,030.0,18.5,0000.0,0002.77,0004.95,0002.22
2023-10-06 14:30:00,SystemResetWarning,0842.6,4.99,000.00,028.3,026.8,000.0,036.8,029.9,18.4,0000.0,0002.71,0005.77,0002.20
2023-10-06 14:31:00,SystemResetWarning,0842.6,4.99,000.00,028.3,026.8,000.0,036.8,029.9,18.2,0000.0,0002.70,0005.81,0002.18
2023-10-06 14:32:00,SystemResetWarning,0842.6,4.99,000.00,028.3,026.7,000.0,036.8,029.8,18.1,0000.0,0002.65,0005.62,0002.17
2023-10-06 14:33:00,SystemResetWarning,0842.6,4.99,000.00,028.3,026.7,000.0,036.8,029.8,18.1,0000.0,0002.63,0006.06,0002.17
2023-10-06 14:34:00,SystemResetWarning,0842.6,5.00,000.00,028.2,026.6,000.0,036.7,029.8,18.1,0000.0,0002.63,0006.18,0002.17
2023-10-06 14:35:00,SystemResetWarning,0842.6,5.00,000.00,028.2,026.6,000.0,036.7,029.8,18.1,0000.0,0002.61,0006.11,0002.16
2023-10-06 14:36:00,SystemResetWarning,0842.6,5.01,000.00,028.2,026.6,000.0,036.7,029.8,18.1,0000.0,0002.60,0005.97,0002.15
2023-10-06 14:37:00,SystemResetWarning,0842.6,5.00,000.00,028.2,026.6,000.0,036.7,029.8,18.1,0000.0,0002.54,0005.71,0002.12
2023-10-06 14:38:00,SystemResetWarning,0842.6,5.00,000.00,028.2,026.6,000.0,036.7,029.8,18.0,0000.0,0002.53,0005.73,0002.11
2023-10-06 14:39:00,SystemResetWarning,0842.6,4.99,000.00,028.2,026.6,000.0,036.7,029.8,18.0,0000.0,0002.55,0005.86,0002.10
2023-10-06 14:40:00,SystemResetWarning,0842.6,5.00,000.00,028.2,026.6,000.0,036.7,029.8,18.0,0000.0,0002.53,0006.04,0002.10
2023-10-06 14:41:00,SystemResetWarning,0842.6,5.00,000.00,028.2,026.6,000.0,036.7,029.8,18.0,0000.0,0002.56,0005.42,0002.10
2023-10-06 14:42:00,SystemResetWarning,0842.6,4.99,000.00,028.2,026.6,000.0,036.7,029.8,18.0,0000.0,0002.57,0005.02,0002.10
2023-10-06 14:43:00,SystemResetWarning,0842.6,4.99,000.00,028.2,026.6,000.0,036.6,029.8,18.0,0000.0,0002.58,0005.07,0002.10
2023-10-06 14:44:00,SystemResetWarning,0842.6,4.99,000.00,028.2,026.6,000.0,036.6,029.7,18.0,0000.0,0002.58,0004.68,0002.08
2023-10-06 14:45:00,SystemResetWarning,0842.6,5.00,000.00,028.2,026.6,000.0,036.6,029.8,18.0,0000.0,0002.54,0004.71,0002.07
2023-10-06 14:46:00,SystemResetWarning,0842.6,5.00,000.00,028.2,026.6,000.0,036.6,029.8,18.0,0000.0,0002.56,0005.18,0002.05
2023-10-06 14:47:00,SystemResetWarning,0842.6,5.01,000.00,028.2,026.6,000.0,036.6,029.8,18.0,0000.0,0002.56,0005.19,0002.06
2023-10-06 14:48:00,SystemResetWarning,0842.6,5.00,000.00,028.2,026.6,000.0,036.6,029.8,18.0,0000.0,0002.60,0005.31,0002.06
2023-10-06 14:49:00,SystemResetWarning,0842.6,5.00,000.00,028.2,026.6,000.0,036.6,029.8,18.1,0000.0,0002.57,0005.24,0002.05
2023-10-06 14:50:00,SystemResetWarning,0842.6,5.00,000.00,028.2,026.6,000.0,036.6,029.8,18.2,0000.0,0002.54,0005.17,0002.05
2023-10-06 14:51:00,SystemResetWarning,0842.6,5.00,000.00,028.2,026.6,000.0,036.6,029.8,18.2,0000.0,0002.58,0005.11,0002.05
2023-10-06 14:52:00,SystemResetWarning,0842.6,5.00,000.00,028.2,026.6,000.0,036.6,029.8,18.0,0000.0,0002.58,0005.05,0002.03
2023-10-06 14:53:00,SystemResetWarning,0842.6,5.01,000.00,028.2,026.6,000.0,036.6,029.8,17.5,0000.0,0002.59,0005.45,0002.03
2023-10-06 14:54:00,SystemResetWarning,0842.6,5.01,000.00,028.2,026.6,000.0,036.6,029.8,17.4,0000.0,0002.56,0005.82,0002.01
2023-10-06 14:55:00,SystemResetWarning,0842.6,5.01,000.00,028.2,026.6,000.0,036.6,029.8,17.4,0000.0,0002.54,0006.80,0002.01
2023-10-06 14:56:00,SystemResetWarning,0842.6,5.00,000.00,028.2,026.6,000.0,036.6,029.8,17.8,0000.0,0002.51,0006.27,0002.00
2023-10-06 14:57:00,SystemResetWarning,0842.6,5.00,000.00,028.2,026.7,000.0,036.6,029.8,17.9,0000.0,0002.47,0005.71,0001.99
2023-10-06 14:58:00,SystemResetWarning,0842.7,5.00,000.00,028.2,026.7,000.0,036.6,029.8,17.7,0000.0,0002.43,0005.69,0001.97
2023-10-06 14:59:00,SystemResetWarning,0842.6,5.00,000.00,028.2,026.7,000.0,036.6,029.8,17.5,0000.0,0002.40,0005.69,0001.99
